Temp
75 68 64 69 73 71 70 66 65 71 77 69 69 70 76 80 79 76 77 78 79 78 85 81 80 80 79 81 78 75 77 75 76 78 75 84 85 86 89 89 89 89 90 88
68 62 71 73 71 67 66 63 64 70 73 70 68 68 75 78 78 77 78 78 79 79 79 82 80 79 77 78 78 76 74 76 78 80 77 76 77 78 82 89 85 86 87 87
64 69 72 67 67 63 65 63 64 64 69 70 66 63 68 75 78 78 78 80 82 81 78 79 79 78 79 77 75 76 76 75 77 77 80 81 79 78 78 81 83 87 86 87
67 74 67 65 64 67 59 70 67 63 60 54 69 53 66 72 72 75 76 77 79 82 80 77 77 77 77 78 80 78 76 76 80 78 79 77 76 77 82 81 85 88 88 87
64 65 64 62 65 69 63 69 65 63 60 59 60 57 63 72 69 71 74 76 76 80 79 78 78 77 78 79 78 78 78 77 77 77 77 77 77 80 82 84 83 83 86 86
68 75 70 68 70 68 70 65 63 63 60 49 58 58 60 67 68 70 74 75 77 77 78 79 80 79 79 80 80 78 77 77 77 76 76 75 73 74 76 78 80 84 89 90
65 67 72 71 64 68 65 58 49 48 48 48 63 59 62 68 72 73 72 75 77 78 78 78 78 80 80 79 80 78 78 76 77 77 76 77 75 74 73 74 77 79 85 89
55 52 65 70 64 61 59 57 47 37 41 48 59 51 60 73 75 75 75 75 77 77 78 77 78 79 80 80 79 79 77 75 77 77 76 76 75 78 78 78 79 81 84 86
55 55 69 68 69 68 61 54 63 50 52 49 55 61 66 70 69 71 72 73 73 75 77 77 78 79 79 79 78 78 77 77 77 77 76 76 76 75 76 76 77 79 78 84
61 51 64 65 66 68 63 66 49 52 39 38 49 52 53 61 65 68 69 70 73 74 76 77 79 79 80 80 79 79 79 78 78 78 77 77 77 77 77 77 76 78 78 79
64 57 56 63 56 55 58 55 57 55 51 38 37 48 64 64 67 67 69 71 72 74 76 77 79 80 81 81 81 79 79 78 77 77 77 76 76 76 77 77 77 77 77 78
64 56 49 54 64 64 62 58 55 41 44 50 49 50 65 68 69 69 69 72 74 75 76 77 78 79 80 79 80 79 78 77 77 77 76 74 76 76 75 75 76 77 77 81
61 50 43 49 56 61 56 59 59 57 55 46 40 44 66 69 69 70 70 73 73 74 75 77 77 77 78 78 79 79 79 78 78 77 76 73 74 75 74 75 76 76 78 79
59 52 47 41 48 45 41 52 55 52 43 47 50 53 53 56 62 70 71 73 74 73 73 75 75 76 77 77 78 78 78 79 78 77 74 72 71 73 74 74 75 76 78 78
57 46 50 52 53 54 52 52 54 51 52 45 53 54 59 64 66 70 72 73 72 72 73 73 73 75 76 76 76 77 78 77 77 74 73 71 71 73 73 74 74 76 76 78
58 45 50 47 53 53 50 54 55 55 56 55 53 53 64 69 72 71 71 71 70 71 73 74 74 74 74 75 74 74 74 74 75 73 71 71 69 70 72 72 73 73 74 76
51 47 44 39 50 50 45 52 54 55 59 57 49 57 66 65 67 67 67 68 69 71 72 72 71 70 70 71 72 71 72 73 72 71 70 69 67 66 69 70 72 72 72 74
48 46 44 39 43 30 53 62 60 56 59 61 59 60 65 66 66 65 70 70 70 68 69 69 69 70 71 72 72 71 72 71 69 68 67 67 65 65 67 68 68 70 72 73
54 47 38 34 38 47 52 56 53 51 49 59 50 62 58 60 61 63 71 72 68 66 69 70 72 72 71 70 70 68 66 65 64 62 62 65 66 62 62 64 66 67 69 72
46 47 36 37 30 31 42 53 61 59 44 56 57 57 56 58 50 61 68 68 68 69 70 71 71 71 69 68 66 62 61 61 58 60 61 60 58 57 59 62 62 64 69 73
36 35 34 37 33 42 48 54 59 38 42 55 56 57 57 54 58 61 65 65 65 67 70 71 70 68 64 64 61 57 58 58 60 61 62 60 58 58 62 60 59 64 69 74
43 37 34 37 32 31 51 52 42 49 57 57 56 55 53 55 58 59 60 59 63 67 70 71 68 64 62 60 59 57 56 61 62 61 61 61 62 64 64 62 60 67 71 72
39 46 41 42 43 55 57 54 58 55 53 55 55 54 54 54 56 59 57 59 64 67 68 68 64 61 60 59 60 54 56 59 59 57 55 58 61 63 61 59 64 68 68 68
50 54 46 46 51 54 55 59 58 60 57 58 60 59 60 58 60 60 62 63 64 64 62 62 59 56 55 58 60 58 58 60 58 54 54 54 55 56 59 68 67 67 66 66
44 50 43 47 53 51 57 56 57 57 57 55 61 61 58 58 56 57 56 57 56 55 56 57 57 57 57 57 58 59 59 57 56 56 57 61 62 63 63 60 66 68 68 71
47 38 35 37 47 40 40 51 55 51 49 56 55 54 53 51 48 49 49 51 53 53 55 57 57 57 55 55 56 59 61 61 60 58 57 59 60 61 63 59 54 43 48 47
MSLP
1005.94 1005.57 1004.40 1003.68 1003.25 1003.23 1002.55 1002.49 1001.54 1000.79 1001.06 1002.15 1002.29 1001.63 1000.99 1000.98 1001.85 1002.47 1002.88 1003.55 1003.83 1004.30 1004.41 1005.52 1006.73 1007.16 1007.40 1007.26 1007.40 1007.76 1007.14 1007.73 1008.52 1008.25 1006.90 1006.20 1006.81 1007.21 1007.42 1006.27 1007.09 1006.98 1007.18 1007.57
1005.66 1004.78 1004.29 1003.86 1004.31 1004.26 1003.87 1003.19 1002.36 1001.99 1001.97 1002.52 1002.59 1001.75 1001.14 1000.82 1000.89 1001.81 1002.11 1002.37 1003.16 1003.84 1004.61 1005.03 1006.16 1006.73 1007.58 1007.44 1007.56 1007.48 1007.73 1007.52 1007.54 1007.38 1007.07 1007.45 1007.43 1007.76 1006.36 1005.76 1006.40 1006.40 1006.97 1007.16
1004.80 1003.89 1004.26 1004.86 1004.78 1004.56 1003.83 1003.24 1002.67 1002.39 1002.34 1002.75 1002.95 1001.71 1001.13 1000.64 1000.60 1000.98 1001.52 1001.92 1002.07 1002.70 1003.94 1004.91 1005.95 1006.68 1006.96 1007.40 1007.98 1008.10 1007.78 1007.62 1007.82 1007.95 1007.38 1007.08 1007.00 1006.78 1006.33 1006.21 1005.69 1005.35 1006.15 1007.02
1004.65 1004.07 1004.41 1005.01 1004.65 1004.31 1003.56 1003.28 1003.52 1003.57 1003.65 1002.57 1001.77 1000.29 999.48 998.98 999.55 1000.28 1000.77 1001.35 1001.60 1001.82 1003.50 1005.14 1005.97 1006.31 1006.76 1006.95 1007.22 1007.58 1007.98 1007.75 1007.59 1007.62 1006.70 1007.91 1007.58 1006.92 1006.40 1006.01 1005.08 1004.81 1005.66 1006.16
1004.22 1004.27 1004.66 1004.56 1004.33 1004.30 1004.04 1004.00 1004.27 1004.34 1003.88 1003.21 1002.09 1000.90 999.30 998.87 998.58 999.79 1000.58 1001.47 1001.95 1002.40 1003.73 1004.59 1005.30 1005.86 1006.15 1006.52 1006.62 1006.90 1007.42 1007.21 1007.32 1007.63 1006.94 1007.06 1006.62 1006.19 1005.56 1004.89 1005.08 1004.90 1005.00 1005.03
1004.50 1004.36 1004.66 1004.43 1004.48 1004.74 1004.87 1004.70 1004.92 1004.59 1003.92 1002.34 1001.27 1000.46 998.67 997.75 998.81 999.79 1000.91 1001.53 1001.88 1002.63 1003.54 1004.11 1004.67 1005.07 1005.14 1005.68 1006.07 1006.57 1006.92 1006.71 1006.91 1007.23 1006.99 1006.78 1006.92 1006.70 1006.25 1006.01 1005.74 1004.94 1004.21 1004.01
1003.63 1003.35 1003.65 1004.50 1004.60 1004.60 1005.23 1005.08 1004.00 1003.07 1002.08 1000.47 999.69 998.94 998.12 998.68 999.03 999.88 1000.99 1001.59 1002.19 1002.75 1003.39 1003.60 1004.12 1004.35 1004.65 1005.18 1005.55 1006.20 1006.15 1006.35 1006.28 1006.57 1006.58 1006.78 1006.86 1006.60 1006.17 1006.16 1005.75 1005.06 1004.29 1003.45
1003.19 1002.36 1002.95 1003.65 1004.43 1003.90 1004.58 1004.79 1004.35 1003.20 1001.91 1000.51 1000.20 999.67 998.92 999.08 999.79 1000.67 1001.21 1001.78 1002.22 1002.60 1003.09 1003.34 1003.94 1004.06 1004.22 1004.48 1004.80 1005.15 1005.33 1005.59 1006.04 1006.09 1006.18 1006.22 1006.53 1006.15 1005.05 1005.16 1005.16 1004.64 1003.96 1003.42
1003.44 1002.74 1002.67 1003.62 1003.95 1004.18 1003.98 1004.12 1004.33 1004.53 1003.80 1002.03 1000.40 999.49 999.90 1000.04 1000.58 1001.42 1001.68 1002.04 1002.39 1002.67 1002.81 1003.24 1003.49 1003.60 1003.79 1004.02 1004.34 1004.71 1004.93 1005.16 1005.34 1005.36 1005.44 1005.58 1005.35 1005.07 1004.92 1004.86 1004.65 1004.39 1003.88 1003.43
1004.31 1003.68 1003.24 1004.14 1004.70 1004.42 1004.48 1004.53 1005.03 1004.88 1004.16 1002.85 1001.07 999.60 998.60 999.51 1000.19 1001.05 1001.64 1002.27 1002.52 1002.85 1002.99 1003.04 1002.95 1002.85 1003.09 1003.29 1003.63 1003.96 1004.14 1004.25 1004.46 1004.63 1004.58 1004.48 1004.26 1004.37 1004.42 1004.01 1003.80 1003.48 1003.40 1003.27
1005.15 1004.83 1004.06 1004.00 1004.52 1004.44 1004.00 1004.46 1004.55 1004.62 1004.66 1003.86 1002.25 1000.37 999.60 999.65 1000.01 1000.64 1001.34 1002.00 1002.37 1002.44 1002.30 1002.26 1002.13 1002.40 1002.57 1002.72 1002.93 1003.22 1003.51 1003.69 1003.88 1004.05 1004.09 1004.00 1003.77 1003.58 1003.35 1003.18 1002.79 1002.54 1002.47 1002.21
1005.25 1005.65 1004.66 1004.00 1003.92 1004.65 1004.68 1004.04 1004.63 1005.39 1004.21 1003.61 1002.56 1000.63 1001.26 1000.81 1000.74 1001.08 1001.47 1001.65 1001.80 1002.05 1002.13 1002.20 1002.12 1002.10 1002.13 1002.34 1002.46 1002.53 1002.78 1003.12 1003.32 1003.39 1003.56 1003.47 1003.06 1002.90 1002.72 1002.39 1001.96 1002.00 1001.60 1001.23
1006.18 1006.39 1005.42 1004.39 1004.34 1003.89 1004.09 1004.36 1004.37 1004.36 1004.11 1003.27 1002.80 1001.92 1000.94 1000.17 1000.55 1000.75 1000.56 1000.72 1001.37 1001.82 1001.89 1001.73 1001.75 1001.75 1001.80 1001.86 1001.95 1002.01 1002.17 1002.38 1002.62 1002.72 1002.57 1002.62 1002.47 1001.97 1001.69 1001.45 1001.41 1001.53 1001.10 1000.41
1007.64 1007.20 1006.50 1005.62 1004.84 1006.39 1006.55 1005.11 1004.77 1004.66 1004.10 1003.03 1001.79 1000.74 1001.82 1001.61 1001.02 999.48 999.48 999.96 1000.44 1001.23 1001.42 1001.35 1001.40 1001.29 1001.17 1001.07 1001.10 1001.08 1000.99 1001.04 1001.15 1001.46 1001.75 1001.73 1001.82 1001.61 1001.30 1001.17 1001.01 1000.65 1000.14 999.40
1007.51 1007.43 1007.09 1006.43 1006.30 1005.69 1005.25 1004.47 1004.12 1003.98 1003.56 1002.94 1001.63 1000.83 1000.41 999.80 999.47 999.05 999.19 999.46 999.69 1000.26 1000.42 1000.53 1000.65 1000.36 1000.25 1000.29 1000.33 1000.30 1000.21 1000.45 1000.64 1000.91 1001.24 1001.29 1001.29 1001.06 1000.76 1000.39 1000.02 999.68 999.13 998.62
1007.24 1007.55 1007.41 1006.75 1006.12 1005.52 1004.58 1003.72 1003.09 1002.74 1002.31 1001.96 1001.77 1000.87 1000.58 999.89 999.18 998.87 998.66 998.68 999.21 999.41 999.71 999.96 1000.10 1000.02 999.78 999.66 999.80 999.93 1000.06 1000.24 1000.44 1000.40 1000.49 1000.72 1000.52 1000.43 999.73 999.25 998.97 998.70 998.19 997.79
1007.42 1007.80 1007.71 1006.76 1006.02 1005.11 1003.59 1002.41 1002.04 1001.69 1001.53 1001.20 1000.79 1000.35 999.77 999.16 998.88 999.25 999.12 999.23 999.43 999.43 999.54 999.55 999.98 1000.43 1000.49 1000.08 999.81 999.59 999.65 999.68 999.62 999.62 999.75 1000.07 999.88 999.61 998.90 998.49 998.22 997.58 997.27 997.08
1007.99 1008.61 1008.67 1007.77 1006.97 1005.28 1002.67 1001.87 1002.00 1001.69 1001.39 1000.99 1000.97 1000.58 999.54 999.10 999.39 1000.02 1000.03 999.55 999.43 999.65 999.99 1000.13 1000.30 1000.06 999.77 999.48 999.30 999.31 999.22 998.99 998.86 998.80 999.05 999.34 999.02 998.70 998.13 997.69 997.39 996.85 996.35 995.67
1008.04 1008.83 1009.33 1008.68 1006.85 1004.99 1003.40 1002.68 1002.91 1002.78 1002.67 1002.18 1002.83 1000.89 1001.70 1001.14 1001.42 999.90 999.74 999.55 1000.13 1000.39 1000.17 999.88 999.38 999.18 999.03 998.93 998.97 999.00 998.95 998.73 998.52 998.41 998.42 998.12 998.06 997.97 998.01 997.26 996.75 996.15 995.35 994.30
1009.21 1009.67 1010.14 1008.99 1008.04 1005.91 1005.48 1004.43 1003.93 1003.58 1002.81 1003.49 1003.39 1002.88 1002.40 1002.14 1001.18 1000.03 999.84 1000.04 999.95 999.86 999.57 999.02 998.84 998.74 998.77 998.81 999.19 999.02 998.41 997.91 997.73 997.34 997.03 997.04 997.22 997.23 996.74 996.00 995.60 994.87 994.03 992.89
1009.51 1009.99 1009.75 1008.86 1008.17 1006.53 1006.37 1005.75 1005.07 1004.52 1004.48 1004.26 1004.24 1004.03 1003.70 1003.30 1002.47 1001.66 1001.22 1000.66 1000.61 999.93 998.73 998.49 998.41 998.24 998.89 999.43 999.20 998.15 997.42 997.03 996.61 995.96 995.47 995.27 995.56 995.57 994.96 994.52 994.00 993.26 992.18 991.58
1007.82 1008.58 1008.80 1008.59 1007.78 1006.74 1006.81 1006.06 1005.94 1005.57 1004.86 1004.65 1004.69 1004.60 1004.11 1003.52 1002.77 1002.25 1001.59 1000.95 1000.00 998.81 997.93 997.90 997.59 998.04 998.95 998.88 998.31 996.98 996.47 995.98 995.42 994.58 994.00 993.43 993.27 992.99 992.82 992.63 992.15 991.44 990.69 990.74
1008.00 1008.35 1008.32 1008.20 1007.01 1006.23 1006.22 1006.19 1005.94 1005.87 1005.52 1005.05 1004.67 1004.45 1003.87 1003.11 1002.33 1001.47 1001.15 1000.37 999.19 998.02 997.51 997.54 997.90 998.32 998.40 998.02 997.32 996.46 995.58 995.03 994.02 993.21 992.30 991.58 990.89 990.83 990.62 991.16 990.28 989.59 989.65 990.41
1008.69 1008.92 1008.60 1008.77 1007.39 1006.75 1006.71 1006.43 1006.08 1005.75 1005.24 1005.02 1004.20 1003.38 1002.87 1002.23 1001.52 1000.70 999.92 999.25 998.59 998.23 998.15 998.34 998.38 998.11 997.47 996.90 996.22 995.70 994.92 993.46 992.19 991.25 990.28 989.02 987.41 988.82 989.20 988.73 988.49 988.82 989.92 990.69
1011.03 1010.25 1010.50 1009.49 1008.12 1008.23 1006.85 1007.30 1006.63 1005.83 1005.78 1005.18 1003.86 1003.32 1003.02 1002.81 1002.34 1001.96 1000.97 1000.40 999.91 999.54 999.21 998.73 997.87 997.16 996.55 996.33 995.73 994.46 993.41 992.14 990.00 988.73 986.22 984.64 986.33 987.04 987.79 988.72 988.90 989.61 990.69 990.95
1011.96 1012.52 1012.79 1011.41 1010.78 1010.92 1009.68 1008.30 1007.35 1006.71 1006.30 1004.89 1004.33 1003.82 1004.09 1003.64 1003.15 1002.54 1001.49 1000.77 1000.03 999.26 998.80 998.14 997.41 996.42 996.11 995.76 995.43 994.40 993.21 991.63 990.23 988.46 987.45 986.67 987.18 987.70 988.33 989.30 990.48 991.12 991.30 991.80
Wind_Speed
14 12 14 16 15 16 18 16 19 12 12 5 14 18 17 16 17 18 17 17 14 11 11 9 5 2 4 5 5 4 8 6 2 2 3 2 6 7 10 6 11 10 10 13
9 13 17 6 9 12 15 17 18 15 8 10 15 20 18 18 16 19 20 18 18 15 13 9 8 5 3 3 5 6 8 7 5 5 6 3 2 5 4 4 9 11 12 13
15 18 7 2 14 13 16 17 16 15 10 9 14 23 23 22 25 21 19 21 18 18 14 11 8 6 4 4 3 2 3 4 4 6 4 5 6 6 5 7 6 4 8 13
11 12 4 12 14 13 16 12 14 13 12 14 11 14 16 5 6 12 13 15 15 11 10 8 9 7 5 3 1 1 2 5 6 8 4 6 7 8 8 5 5 5 16 15
13 4 10 16 13 12 14 9 10 13 16 18 20 15 15 20 14 14 12 13 8 14 14 14 11 6 3 3 1 1 4 3 4 6 6 8 9 8 8 7 8 8 7 12
16 13 9 12 11 7 13 10 14 17 16 18 20 20 17 13 13 13 12 10 12 11 9 9 6 5 6 5 5 3 6 4 5 5 8 6 11 11 10 10 10 9 8 10
21 22 20 14 15 15 13 14 13 16 17 16 15 11 13 5 6 14 12 12 11 11 10 10 9 7 5 7 7 6 7 6 7 8 8 9 11 12 12 12 12 13 10 10
17 15 15 12 14 18 10 15 11 11 13 14 10 7 7 12 12 2 3 6 6 7 10 4 6 8 8 9 7 9 9 8 9 10 10 9 10 10 9 10 10 11 11 11
16 21 13 7 13 13 14 13 12 16 20 18 17 17 12 9 8 9 10 9 8 8 8 8 12 11 10 9 10 11 11 12 11 12 10 11 11 11 11 13 11 12 12 12
16 18 14 16 7 14 17 14 11 11 17 20 18 20 13 17 15 14 8 9 8 7 11 13 13 13 11 11 11 13 13 13 13 13 13 11 12 12 12 12 13 13 13 14
13 16 18 16 12 19 13 15 17 16 15 8 14 5 11 11 9 9 7 4 8 12 13 14 11 11 11 11 11 11 12 12 12 12 13 14 14 14 13 13 13 13 14 13
9 9 14 19 17 8 16 16 20 8 16 15 18 17 10 4 7 6 6 10 9 11 11 14 13 13 12 11 12 12 10 12 13 13 14 16 16 15 14 14 15 15 16 16
9 7 13 16 16 13 11 14 15 19 18 20 16 10 18 11 9 9 15 7 8 10 13 13 13 13 14 13 13 13 12 13 13 13 14 15 17 16 15 15 15 17 18 18
7 14 19 16 19 6 10 20 12 16 14 18 20 24 15 16 23 17 12 12 10 10 13 13 13 14 16 14 14 15 16 15 14 15 16 17 16 17 16 16 17 18 19 19
12 19 21 21 21 24 21 23 18 18 19 22 19 23 19 20 21 20 17 17 15 14 15 13 17 15 15 16 17 18 17 18 17 16 17 17 17 19 19 19 18 18 19 19
13 17 20 22 23 21 23 25 22 24 24 26 27 28 23 23 21 21 23 11 15 15 16 17 18 20 18 18 18 18 17 18 18 19 18 20 18 20 20 18 17 18 20 20
14 12 15 18 20 22 21 22 22 21 21 22 23 24 22 21 17 13 9 11 17 17 20 16 17 17 20 21 19 18 19 19 19 20 19 22 19 19 21 19 20 19 20 22
15 14 9 10 13 11 11 9 9 13 15 15 14 14 16 14 13 7 13 16 21 14 18 17 18 21 21 20 19 19 19 19 20 21 22 22 18 19 17 18 18 20 19 21
12 12 7 11 11 15 21 13 10 16 14 15 12 15 11 10 20 15 17 16 14 14 19 20 20 21 21 20 20 20 20 20 19 20 20 23 21 19 19 21 21 20 20 20
3 7 6 5 6 6 7 3 9 12 15 10 16 18 19 20 16 16 22 24 23 23 21 21 22 21 22 20 19 20 22 20 20 19 19 19 16 17 20 20 22 21 21 20
3 2 8 11 8 9 4 11 13 10 6 20 17 20 21 20 19 24 24 24 22 24 24 21 22 20 18 21 21 22 19 21 21 20 20 16 17 21 22 20 18 19 20 18
3 4 4 5 5 6 3 10 8 12 17 18 17 17 17 21 22 22 23 21 24 28 23 23 21 16 19 20 20 19 20 22 20 21 21 20 22 17 16 18 17 21 20 18
3 5 4 4 6 14 11 13 15 12 15 18 19 18 18 21 23 22 20 22 25 25 21 20 19 22 20 18 19 19 18 19 20 18 19 23 24 21 15 17 19 17 18 15
6 10 6 10 2 14 17 16 16 18 18 21 22 20 22 24 25 25 24 23 23 22 23 22 23 21 18 17 20 15 19 21 19 19 22 30 26 23 20 16 16 14 12 11
3 10 10 16 12 18 8 19 21 21 22 25 26 26 25 26 28 29 28 26 23 20 20 20 20 18 19 18 19 20 18 21 24 17 18 9 14 14 13 8 10 12 11 14
5 3 3 8 21 14 15 22 27 26 26 25 27 30 30 26 22 23 21 20 22 19 20 20 21 21 17 18 17 18 19 20 17 13 13 8 9 10 10 10 10 23 15 16
Wind_Direction
200 253 237 248 241 260 291 293 295 290 228 217 268 266 252 229 203 224 234 240 213 233 197 133 157 120 357 3 16 24 53 80 330 275 294 215 224 230 235 218 241 246 242 207
251 242 262 324 305 284 270 258 258 261 261 264 262 264 258 250 239 234 242 223 229 207 219 176 179 144 141 63 9 27 354 0 1 321 354 333 216 267 301 247 206 208 225 232
259 282 22 250 254 246 246 258 263 268 268 254 268 263 254 249 244 243 234 251 230 210 187 201 190 190 169 138 136 342 356 355 323 304 309 278 253 248 268 255 256 212 223 233
276 261 266 247 248 264 267 249 239 283 273 262 244 280 266 231 217 232 234 237 239 191 154 181 209 178 170 165 166 155 37 329 300 323 329 277 279 275 280 291 292 236 215 217
282 203 236 243 250 268 265 307 288 263 268 278 261 259 260 247 219 206 189 190 192 182 183 188 196 192 230 199 282 359 319 341 338 315 301 301 281 287 304 309 293 271 261 207
253 281 260 274 284 280 282 286 256 256 255 251 254 252 260 232 208 157 177 195 178 177 184 202 214 234 233 217 263 281 290 315 322 313 306 288 281 283 288 289 293 286 264 232
237 230 222 220 255 235 242 249 254 240 226 244 237 254 239 80 156 157 174 179 182 194 220 207 223 240 243 251 242 249 259 278 290 286 294 283 273 267 267 266 264 267 266 263
282 278 216 180 234 267 204 267 273 279 291 285 133 235 286 249 152 176 262 256 249 217 231 206 262 275 273 269 272 281 286 287 285 280 279 278 277 273 272 260 261 266 267 260
260 261 287 205 214 235 265 266 277 292 281 282 279 280 156 155 161 208 221 210 226 240 251 258 268 272 273 274 269 269 274 280 274 281 274 274 276 272 271 276 273 272 271 275
282 281 273 221 270 257 260 276 257 236 264 259 261 249 240 165 194 188 194 210 227 264 278 274 270 276 273 276 275 262 256 266 282 281 281 275 280 276 273 269 270 266 262 270
273 272 265 271 202 258 243 234 240 251 256 271 282 280 73 167 146 171 203 255 275 272 269 274 280 279 279 280 283 284 279 276 281 290 292 285 278 278 275 270 269 272 272 255
258 284 278 271 272 278 276 258 231 252 243 237 253 272 197 247 168 168 220 251 295 304 286 280 279 272 278 275 276 273 269 276 279 279 285 294 287 274 272 270 268 270 269 264
318 251 267 264 262 275 257 259 255 264 254 256 258 268 325 181 207 217 242 284 284 296 294 280 276 274 275 274 272 275 273 274 278 284 287 287 288 274 274 274 269 265 266 265
319 275 272 275 297 128 239 236 264 282 255 265 258 271 175 199 242 265 281 294 281 295 295 292 285 281 278 277 286 289 287 285 283 287 293 286 283 280 277 272 269 260 263 263
250 263 269 270 276 275 258 258 245 240 263 272 269 270 266 286 286 292 298 285 278 268 274 294 304 292 280 279 278 277 280 288 290 285 289 287 287 275 271 264 263 262 260 262
257 255 262 268 273 278 269 270 264 262 261 260 263 264 269 269 277 280 277 278 291 282 299 300 292 290 290 289 291 295 294 288 284 280 279 288 283 277 273 269 267 266 260 259
261 266 272 268 272 283 256 257 260 260 265 266 261 267 268 274 273 262 308 303 281 297 299 301 321 313 302 302 302 287 280 283 284 281 278 283 279 269 264 266 259 261 253 255
260 260 271 276 291 268 262 313 311 302 277 267 274 263 277 296 341 312 279 294 291 326 310 310 299 285 284 283 289 298 292 285 282 278 276 282 268 265 268 272 274 261 253 251
247 242 252 253 268 272 282 306 301 284 287 297 242 310 357 341 303 298 291 290 338 303 299 292 292 298 293 297 302 301 299 293 285 280 272 270 268 267 266 266 268 256 255 243
292 272 241 266 248 271 27 333 346 314 278 17 346 335 328 317 300 293 329 322 314 307 288 295 296 299 297 303 311 295 281 280 276 269 263 257 255 254 257 259 262 255 252 229
144 179 236 241 247 270 33 353 321 276 332 324 330 320 321 306 299 310 302 299 298 287 290 298 298 292 313 306 295 283 278 277 279 278 266 258 248 247 251 263 256 257 241 211
260 213 194 225 241 264 271 303 331 320 315 318 317 309 298 296 297 296 294 291 288 286 298 299 296 312 306 296 285 280 279 280 280 279 278 269 266 261 258 257 250 250 211 190
29 355 304 303 302 322 345 332 321 331 308 309 311 308 293 288 288 300 287 278 280 294 301 311 311 305 295 290 286 284 285 289 282 284 275 272 271 259 234 260 243 199 172 152
344 22 318 321 348 325 334 318 332 323 316 319 302 300 308 303 301 303 305 309 309 310 310 309 301 293 288 284 287 284 290 284 275 267 270 272 265 266 259 205 176 143 141 134
336 306 334 291 288 340 330 328 319 316 319 305 313 322 318 315 308 305 299 301 302 297 293 288 289 284 290 291 292 295 292 287 283 268 286 56 143 151 132 103 134 137 140 155
10 343 305 288 319 307 283 297 306 309 298 321 328 321 313 305 300 294 288 289 290 288 290 287 292 291 290 289 289 289 287 288 293 315 344 37 95 107 108 99 82 45 73 64